Tracking 32139 objects as of 17-Nov-2025
HD Live streaming from Space Station
objects crossing your sky now

STARLINK-34968

Track STARLINK-34968 now!
10-day predictions
STARLINK-34968 is classified as:


NORAD ID: 65276
Int'l Code: 2025-184D
Perigee: 555.5 km
Apogee: 557.7 km
Inclination: 97.6 °
Period: 95.6 minutes
Semi major axis: 6927 km
RCS: Unknown
Launch date: August 22, 2025
Source: United States (US)
Launch site: AIR FORCE WESTERN TEST RANGE (AFWTR)
Your satellite tracking list
Your tracking list is empty




NASA's NSSDC Master Catalog

Two Line Element Set (TLE):
1 65276U 25184D   25320.59691734  .00011151  00000-0  77531-3 0  9997
2 65276  97.6052  11.1802 0001578 109.3460 250.7937 15.05674655 14286
Source of the keplerian elements: AFSPC